Location: Howard City Library
(37.4684°N, 96.2639°W)
Time: 06:19:23
(UTC+00:00)

deb Kosmos-1763 - Pass Details

Date: 18 February 2020
Orbit: 467 x 483 km, 74.0° (Epoch: 09 April)

Event Time Altitude Azimuth Distance (km) Brightness Sun altitude
Rises 01:45:39 0° 339° (NNW) 2,544 8.0 -20.3°
Reaches altitude 10° 01:47:46 10° 338° (NNW) 1,663 7.0 -20.8°
Maximum altitude 01:51:25 72° 255° (WSW) 511 4.2 -21.5°
Enters shadow 01:52:29 43° 182° (S) 686 4.7 -21.7°
